W4CKA Weather Reports


Display with metric or nautical units.
time (UTC)temp
F
wind
direction
speed
MPH
gust
MPH
rain 1hr
in
rain 24hr
in
rain mn
in
humidity
%
barometer
mb
20260508194313 70 270 0.0 5.0 0.00 0.00 0.00 38 1056.6
20260508193312 69 2 4.0 5.0 0.00 0.00 0.00 38 1056.7
20260508192312 69 254 8.0 10.0 0.00 0.00 0.00 38 1056.7
20260508191306 67 345 2.0 6.0 0.00 0.00 0.00 42 1056.9
20260508190305 68 54 8.0 8.0 0.00 0.00 0.00 43 1056.9
20260508185306 67 65 9.0 9.0 0.00 0.00 0.00 50 1057.2
20260508184305 68 299 2.0 4.0 0.00 0.00 0.00 49 1057.5
20260508183304 68 302 3.0 5.0 0.00 0.00 0.00 45 1057.4
20260508182306 67 105 4.0 6.0 0.00 0.00 0.00 45 1057.6
20260508181302 68 345 2.0 3.0 0.00 0.00 0.00 47 1057.7
20260508180301 67 325 0.0 3.0 0.00 0.00 0.00 47 1057.8
20260508175300 65 75 3.0 5.0 0.00 0.00 0.00 50 1057.8
20260508174255 66 332 0.0 2.0 0.00 0.00 0.00 50 1057.9
20260508173254 64 74 4.0 9.0 0.00 0.00 0.00 45 1058.4
20260508172254 64 353 3.0 8.0 0.00 0.00 0.00 44 1058.7
20260508171252 65 99 0.0 3.0 0.00 0.00 0.00 46 1058.7
20260508170247 65 348 3.0 5.0 0.00 0.00 0.00 45 1059.0
20260508165247 65 29 3.0 3.0 0.00 0.00 0.00 52 1059.2
20260508164245 62 63 0.0 5.0 0.00 0.00 0.00 46 1059.3
20260508163241 62 53 0.0 5.0 0.00 0.00 0.00 49 1059.5
20260508162239 61 99 4.0 6.0 0.00 0.00 0.00 46 1059.7
20260508161240 62 55 7.0 8.0 0.00 0.00 0.00 48 1059.7
20260508160236 60 46 4.0 9.0 0.00 0.00 0.00 49 1060.2
20260508155235 60 36 2.0 7.0 0.00 0.00 0.00 50 1060.2
20260508154235 60 63 0.0 4.0 0.00 0.00 0.00 47 1060.5
20260508153234 61 29 0.0 6.0 0.00 0.00 0.00 51 1060.5
20260508152232 61 18 5.0 5.0 0.00 0.00 0.00 59 1060.4
20260508151231 60 139 2.0 5.0 0.00 0.00 0.00 55 1060.5
20260508150230 61 243 2.0 6.0 0.00 0.00 0.00 66 1060.6
20260508145228 60 24 3.0 4.0 0.00 0.00 0.00 74 1060.7
20260508144223 59 348 0.0 4.0 0.00 0.00 0.00 78 1060.6
20260508143218 58 23 2.0 4.0 0.00 0.00 0.00 77 1060.6
20260508142217 58 339 4.0 5.0 0.00 0.00 0.00 79 1060.5
20260508141216 56 270 0.0 2.0 0.00 0.00 0.00 79 1060.7
20260508140215 55 287 2.0 4.0 0.00 0.00 0.00 82 1060.6
20260508135213 55 79 3.0 4.0 0.00 0.00 0.00 82 1060.8
20260508134213 55 24 3.0 5.0 0.00 0.00 0.00 80 1060.6
20260508133207 53 65 6.0 6.0 0.00 0.00 0.00 84 1060.7
20260508132207 54 37 4.0 4.0 0.00 0.00 0.00 85 1060.6
20260508131205 52 54 3.0 4.0 0.00 0.00 0.00 86 1060.6
20260508130205 50 54 5.0 5.0 0.00 0.00 0.00 87 1060.5
20260508125203 50 64 4.0 5.0 0.00 0.00 0.00 88 1060.5
20260508124158 50 74 1.0 1.0 0.00 0.00 0.00 93 1060.5
20260508123154 48 90 2.0 2.0 0.00 0.00 0.00 99 1060.3
20260508122153 44 82 3.0 5.0 0.00 0.00 0.00 99 1060.3
20260508121149 43 82 2.0 4.0 0.00 0.00 0.00 99 1060.4
20260508120144 42 116 3.0 5.0 0.00 0.00 0.00 99 1060.2
20260508115144 40 86 4.0 4.0 0.00 0.00 0.00 99 1060.0
20260508114143 39 81 3.0 5.0 0.00 0.00 0.00 99 1059.9
20260508113138 39 116 4.0 5.0 0.00 0.00 0.00 99 1059.9
20260508112137 38 77 2.0 4.0 0.00 0.00 0.00 99 1059.9
20260508111137 38 82 2.0 3.0 0.00 0.00 0.00 99 1059.8
20260508110136 37 57 2.0 2.0 0.02 0.00 0.00 99 1059.6
20260508105134 37 66 0.0 1.0 0.00 0.00 0.00 99 1059.5
20260508104134 39 112 3.0 4.0 0.00 0.00 0.00 99 1059.3
20260508103129 38 98 2.0 4.0 0.00 0.00 0.00 99 1059.0
20260508102124 39 90 4.0 7.0 0.00 0.00 0.00 99 1058.9
20260508101124 39 90 3.0 6.0 0.00 0.00 0.00 99 1058.9
20260508100119 40 107 5.0 6.0 0.00 0.00 0.00 99 1058.8
20260508095118 40 121 3.0 5.0 0.00 0.00 0.00 99 1058.8
20260508094117 40 90 2.0 4.0 0.00 0.00 0.00 99 1058.8
20260508093112 40 98 3.0 5.0 0.00 0.00 0.00 99 1058.8
20260508092108 40 95 3.0 5.0 0.00 0.00 0.00 99 1058.8
20260508091107 40 73 0.0 3.0 0.00 0.00 0.00 99 1058.9
20260508085056 39 66 0.0 1.0 0.00 0.00 0.00 99 1058.7
20260508084056 40 328 0.0 0.0 0.00 0.00 0.00 99 1058.7
20260508083055 40 90 1.0 1.0 0.00 0.00 0.00 99 1058.7
20260508082054 40 48 2.0 2.0 0.00 0.00 0.00 99 1058.6
20260508081053 42 80 2.0 2.0 0.00 0.00 0.00 99 1058.5
20260508080049 42 67 3.0 4.0 0.00 0.00 0.00 99 1058.2
20260508075048 42 100 3.0 5.0 0.00 0.00 0.00 99 1058.5
20260508074043 42 96 3.0 4.0 0.00 0.00 0.00 99 1058.6
20260508073044 42 99 3.0 5.0 0.00 0.00 0.00 99 1058.2
20260508072042 42 120 5.0 5.0 0.00 0.00 0.00 99 1058.6
20260508071038 42 82 3.0 4.0 0.00 0.00 0.00 99 1058.4
20260508070033 42 65 4.0 5.0 0.00 0.00 0.00 99 1058.5
20260508065029 42 49 0.0 1.0 0.00 0.00 0.00 99 1058.6
20260508064024 42 294 0.0 1.0 0.00 0.00 0.00 99 1058.7
20260508063019 42 345 0.0 0.0 0.00 0.00 0.00 99 1058.7
20260508062018 42 23 0.0 2.0 0.00 0.00 0.00 99 1058.7
20260508061013 41 55 2.0 2.0 0.00 0.00 0.00 99 1058.4
20260508060014 42 49 0.0 2.0 0.00 0.00 0.00 99 1058.7
20260508055012 42 32 1.0 2.0 0.00 0.00 0.00 99 1058.6
20260508054011 44 47 3.0 3.0 0.00 0.00 0.00 99 1058.5
20260508053006 44 106 2.0 3.0 0.00 0.00 0.00 99 1058.6
20260508052006 45 90 2.0 2.0 0.00 0.00 0.00 99 1058.7
20260508051003 44 90 2.0 2.0 0.00 0.00 0.00 99 1058.6
20260508050003 44 40 1.0 3.0 0.00 0.00 0.00 99 1058.2
20260508044957 44 68 3.0 3.0 0.00 0.00 0.00 99 1058.5
20260508043955 46 40 1.0 2.0 0.00 0.00 0.00 99 1058.5
20260508042954 45 75 1.0 2.0 0.00 0.00 0.00 99 1058.1
20260508041949 45 63 1.0 2.0 0.00 0.00 0.00 99 1058.1
20260508040949 46 66 0.0 0.0 0.00 0.00 0.00 99 1058.1
20260508035944 46 337 0.0 0.0 0.00 0.11 0.11 99 1057.9
20260508034943 46 54 1.0 2.0 0.00 0.11 0.11 99 1057.9
20260508033942 47 57 3.0 3.0 0.00 0.11 0.11 99 1057.8
20260508032938 48 81 3.0 4.0 0.00 0.11 0.11 99 1057.6
20260508031937 48 78 3.0 3.0 0.00 0.11 0.11 99 1057.7
20260508030936 49 81 3.0 3.0 0.00 0.11 0.11 99 1057.8
20260508025936 49 90 3.0 3.0 0.00 0.11 0.11 99 1057.8
20260508024936 49 49 1.0 2.0 0.00 0.11 0.11 99 1057.5
20260508023935 49 32 1.0 2.0 0.00 0.11 0.11 99 1057.4
20260508022935 50 19 2.0 2.0 0.00 0.11 0.11 99 1057.1
20260508021932 50 8 0.0 2.0 0.00 0.11 0.11 99 1057.1
20260508020930 50 36 2.0 3.0 0.00 0.11 0.11 99 1057.1
20260508015925 51 49 3.0 4.0 0.00 0.11 0.11 99 1057.0
20260508014925 51 270 0.0 1.0 0.00 0.11 0.11 99 1056.9
20260508013923 52 306 0.0 1.0 0.00 0.11 0.11 99 1056.6
20260508012923 52 255 3.0 3.0 0.00 0.11 0.11 99 1056.4
20260508011923 52 308 0.0 2.0 0.00 0.11 0.11 98 1056.4
20260508010918 52 294 0.0 1.0 0.00 0.11 0.11 98 1056.2
20260508005918 53 270 1.0 2.0 0.00 0.11 0.11 97 1056.1
20260508004917 54 270 0.0 0.0 0.00 0.11 0.11 97 1056.0
20260508003916 54 340 1.0 1.0 0.00 0.11 0.11 96 1055.8
20260508002910 54 270 0.0 2.0 0.00 0.11 0.11 95 1055.7
20260508001908 55 270 0.0 1.0 0.00 0.11 0.11 94 1055.7
20260508000907 57 105 0.0 0.0 0.00 0.11 0.11 92 1055.3
20260507235906 57 331 0.0 1.0 0.00 0.11 0.11 89 1055.5
20260507234906 59 40 2.0 2.0 0.00 0.11 0.11 86 1055.3
20260507233905 61 273 3.0 3.0 0.00 0.11 0.11 81 1055.2
20260507232901 64 0 0.0 2.0 0.00 0.11 0.11 75 1055.4
20260507231900 63 63 0.0 2.0 0.00 0.11 0.11 79 1055.4
20260507230859 59 180 0.0 1.0 0.00 0.11 0.11 83 1055.7
20260507225856 59 90 0.0 0.0 0.00 0.11 0.11 84 1055.7
20260507224854 59 81 0.0 0.0 0.00 0.11 0.11 83 1055.8
20260507223853 60 99 0.0 1.0 0.00 0.11 0.11 79 1055.5
20260507222853 61 114 0.0 0.0 0.00 0.11 0.11 79 1055.8
20260507221852 62 311 0.0 3.0 0.00 0.11 0.11 70 1055.4
20260507220851 66 281 2.0 2.0 0.00 0.11 0.11 63 1055.4
20260507215845 63 90 0.0 3.0 0.00 0.11 0.11 75 1055.3
20260507214839 62 270 0.0 4.0 0.00 0.11 0.11 69 1055.3
20260507213837 64 21 2.0 3.0 0.00 0.11 0.11 66 1055.1
20260507212837 62 80 0.0 3.0 0.00 0.11 0.11 77 1054.9
20260507211836 60 61 3.0 3.0 0.00 0.11 0.11 71 1055.0
20260507210835 61 29 0.0 2.0 0.00 0.11 0.11 71 1054.8
20260507205835 62 14 0.0 5.0 0.00 0.11 0.11 72 1054.9
20260507204834 63 132 0.0 3.0 0.00 0.11 0.11 71 1054.8
20260507203829 60 270 0.0 2.0 0.00 0.11 0.11 82 1055.0
20260507202828 60 0 2.0 3.0 0.00 0.11 0.11 81 1055.0
20260507201826 60 300 2.0 3.0 0.00 0.11 0.11 81 1054.9
20260507200825 60 0 3.0 4.0 0.00 0.11 0.11 81 1055.1
20260507195823 59 261 3.0 5.0 0.00 0.11 0.11 81 1055.1
20260507194817 58 40 2.0 3.0 0.00 0.11 0.11 89 1055.2